Find Globalstar M019

NORAD ID: 25677 Int'l Des: 1999-019 Owner: GLOBT Country: US Constellation: globalstar operational
LEOCIRCULAR

Live-Position

3D-Globus wird geladen...

Über Globalstar M019

Beschreibung wird geladen...

Nächste Überflüge

Passes for default location (London). Set your location on the main map for personalized predictions.

Höhenverlauf

Loading altitude history...

Zweizeiliger Elementsatz

1 25677U 99019B 26105.98156406 -.00000055 00000-0 36653-3 0 9995
2 25677 51.9895 313.9080 0001276 167.0222 1.9448 12.13883838221912
Epoch: 15. Apr. 2026 • Age: 10 hours

Aktueller Status

Höhe 1620.1 km
Geschwindigkeit 7.06 km/s
Subsatellitenpunkt 30.75°N, 121.52°E
Startdatum 15. Apr. 1999
Alter 27 years
Typ communications

Technische Details

Klassifizierung Payload
Masse 450.00 kg
Trockenmasse 380.00 kg
Gesamtmasse 450.00 kg
Länge 1.50 m
Durchmesser 0.60 m
Spannweite 12.00 m
Form Box + 2 Pan
Hersteller LOR
Bus-Typ LS-400
Phasenstatus In Orbit
Besitzer/Staat GLOBT/US

Most Searched